TimeCST,TemperatureF,Dew PointF,Humidity,Sea Level PressureIn,VisibilityMPH,Wind Direction,Wind SpeedMPH,Gust SpeedMPH,PrecipitationIn,Events,Conditions,WindDirDegrees,DateUTC
12:15 AM,17.6,14.0,86,30.15,10.0,WSW,8.1,-,N/A,,Overcast,250,2012-12-30 06:15:00
12:35 AM,17.6,14.0,86,30.15,10.0,West,11.5,-,N/A,,Overcast,260,2012-12-30 06:35:00
12:55 AM,17.6,14.0,86,30.16,10.0,WSW,10.4,-,N/A,,Overcast,250,2012-12-30 06:55:00
1:15 AM,15.8,12.2,86,30.17,10.0,WSW,10.4,-,N/A,,Scattered Clouds,250,2012-12-30 07:15:00
1:35 AM,14.0,10.4,86,30.18,10.0,West,10.4,-,N/A,,Clear,260,2012-12-30 07:35:00
1:55 AM,12.2,10.4,92,30.18,10.0,WSW,10.4,-,N/A,,Clear,250,2012-12-30 07:55:00
2:15 AM,12.2,10.4,92,30.19,10.0,WSW,10.4,-,N/A,,Clear,250,2012-12-30 08:15:00
2:35 AM,12.2,8.6,85,30.18,10.0,WSW,10.4,-,N/A,,Clear,250,2012-12-30 08:35:00
2:55 AM,10.4,8.6,92,30.19,10.0,WSW,9.2,-,N/A,,Clear,240,2012-12-30 08:55:00
3:15 AM,10.4,8.6,92,30.20,10.0,WSW,10.4,-,N/A,,Clear,240,2012-12-30 09:15:00
3:35 AM,10.4,8.6,92,30.21,10.0,WSW,10.4,-,N/A,,Scattered Clouds,240,2012-12-30 09:35:00
3:55 AM,10.4,8.6,92,30.20,10.0,WSW,10.4,-,N/A,,Scattered Clouds,250,2012-12-30 09:55:00
4:15 AM,10.4,6.8,85,30.21,10.0,WSW,10.4,-,N/A,,Clear,250,2012-12-30 10:15:00
4:35 AM,8.6,6.8,92,30.22,10.0,WSW,9.2,-,N/A,,Clear,240,2012-12-30 10:35:00
5:45 AM,6.8,5.0,92,30.23,10.0,WSW,6.9,-,N/A,,Clear,250,2012-12-30 11:45:00
6:45 AM,8.6,6.8,92,30.25,5.0,WSW,10.4,-,N/A,,Overcast,240,2012-12-30 12:45:00
7:45 AM,8.6,6.8,92,30.25,4.0,WSW,6.9,-,N/A,Snow,Light Snow,240,2012-12-30 13:45:00
8:45 AM,8.6,8.6,100,30.27,2.0,WSW,8.1,-,N/A,Snow,Light Snow,240,2012-12-30 14:45:00
9:28 AM,8.6,8.6,100,30.28,5.0,WSW,3.5,-,N/A,Snow,Light Snow,240,2012-12-30 15:28:00
9:45 AM,10.4,8.6,92,30.26,7.0,WSW,5.8,-,N/A,,Clear,240,2012-12-30 15:45:00
10:45 AM,12.2,8.6,85,30.27,7.0,WSW,6.9,-,N/A,,Clear,240,2012-12-30 16:45:00
12:45 PM,19.4,12.2,74,30.22,10.0,WSW,11.5,-,N/A,,Clear,250,2012-12-30 18:45:00
1:45 PM,21.2,14.0,74,30.20,10.0,SW,8.1,-,N/A,,Clear,220,2012-12-30 19:45:00
2:45 PM,21.2,14.0,74,30.18,10.0,SSW,5.8,-,N/A,,Scattered Clouds,200,2012-12-30 20:45:00
3:45 PM,21.2,14.0,74,30.16,10.0,SSW,6.9,-,N/A,,Partly Cloudy,210,2012-12-30 21:45:00
4:45 PM,21.2,17.6,86,30.16,10.0,South,4.6,-,N/A,,Clear,180,2012-12-30 22:45:00
5:45 PM,19.4,15.8,86,30.14,10.0,South,5.8,-,N/A,,Clear,170,2012-12-30 23:45:00
6:45 PM,19.4,15.8,86,30.13,7.0,South,6.9,-,N/A,,Clear,180,2012-12-31 00:45:00
7:45 PM,21.2,17.6,86,30.09,10.0,South,9.2,-,N/A,,Clear,180,2012-12-31 01:45:00
8:15 PM,23.0,19.4,86,30.07,10.0,South,9.2,-,N/A,,Clear,170,2012-12-31 02:15:00
8:35 PM,23.0,21.2,93,30.07,10.0,South,9.2,-,N/A,,Clear,180,2012-12-31 02:35:00
8:45 PM,24.8,19.4,80,30.07,10.0,South,8.1,-,N/A,,Clear,180,2012-12-31 02:45:00
8:55 PM,24.8,21.2,86,30.06,10.0,South,9.2,-,N/A,,Clear,180,2012-12-31 02:55:00
9:15 PM,24.8,21.2,86,30.06,10.0,South,8.1,-,N/A,,Clear,180,2012-12-31 03:15:00
9:35 PM,24.8,21.2,86,30.05,10.0,South,6.9,-,N/A,,Clear,170,2012-12-31 03:35:00
9:55 PM,26.6,21.2,80,30.04,10.0,South,6.9,-,N/A,,Clear,180,2012-12-31 03:55:00
10:15 PM,26.6,21.2,80,30.03,10.0,South,6.9,-,N/A,,Clear,180,2012-12-31 04:15:00
10:35 PM,28.4,23.0,80,30.01,10.0,SSW,10.4,19.6,N/A,,Clear,210,2012-12-31 04:35:00
10:55 PM,32.0,23.0,69,30.01,10.0,SSW,15.0,21.9,N/A,,Clear,210,2012-12-31 04:55:00
11:15 PM,32.0,23.0,69,30.00,10.0,SSW,13.8,21.9,N/A,,Clear,210,2012-12-31 05:15:00
11:35 PM,32.0,23.0,69,29.98,10.0,SSW,13.8,18.4,N/A,,Clear,200,2012-12-31 05:35:00
11:55 PM,32.0,23.0,69,29.98,10.0,SSW,15.0,21.9,N/A,,Clear,200,2012-12-31 05:55:00